Location: Unspecified
(0.0000°N, 0.0000°E)
Time: 08:11:48
(UTC+00:00)

INTEGRAL - Pass Details

Date: 17 January 2022
Orbit: 2361 x 147108 km, 74.6° (Epoch: 25 May)

Event Time Altitude Azimuth Distance (km) Brightness Sun altitude
Rises 01:02:35 0° 34° (NE) 153,298 14.0 -65.6°
Reaches altitude 10° 02:16:53 10° 33° (NNE) 151,868 14.0 -52.7°
Maximum altitude 07:11:45 36° 357° (N) 145,012 13.9 14.4°
Drops below altitude 10° 11:49:52 10° 320° (NW) 138,947 13.8 68.7°
Sets 12:53:24 0° 318° (NW) 137,405 13.8 66.8°
